Location: ???????
(54.6339°N, 39.4245°E)
Time: 07:55:13
(UTC+00:00)

Meteor 1-18 Rocket - Pass Details

Date: 19 May 2025
Orbit: 836 x 907 km, 81.2° (Epoch: 23 June)

Event Time Altitude Azimuth Distance (km) Brightness Sun altitude
Exits shadow 21:32:13 22° 202° (SSW) 1,860 5.4 -15.3°
Maximum altitude 21:36:10 76° 285° (WNW) 924 4.4 -15.3°
Drops below altitude 10° 21:42:07 10° 12° (NNE) 2,594 8.1 -15.2°
Sets 21:44:37 0° 14° (NNE) 3,545 9.2 -15.2°
